Regional Weather Roundup
Issued by NWS

Home | Current Version | Previous Version | Text Only | Print | Product List | Glossary Off
Versions: 1 2 3 4 5 6 7 8 9 10 11 12 13 14 15 16 17 18 19 20 21 22 23 24 25 26 27 28

000
ASUS45 KCYS 230010
RWRWY

WYOMING REGIONAL WEATHER ROUNDUP
NATIONAL WEATHER SERVICE CHEYENNE WY
600 PM MDT TUE AUG 22 2017

NOTE:  "FAIR" INDICATES FEW OR NO CLOUDS BELOW 12,000 FEET
WITH NO SIGNIFICANT WEATHER AND/OR OBSTRUCTIONS TO VISIBILITY.

WYZ001-230100-
YELLOWSTONE NATIONAL PARK

CITY           SKY/WX    TMP DP  RH WIND       PRES   REMARKS
LK YELLOWSTONE   N/A     73  24  16 VRB5      30.38S
6HR MIN TEMP:  60; 6HR MAX TEMP:  75;

W YELLOWSTONE  NOT AVBL

$$
WYZ002>013-054>058-071-098>099-230100-
NORTHERN WYOMING

CITY           SKY/WX    TMP DP  RH WIND       PRES   REMARKS
JACKSON        FAIR      81  26  13 W10       30.26F
CODY           FAIR      84  34  16 E8        30.16F
GREYBULL       FAIR      91  29  11 NW10      30.05F
6HR MIN TEMP:  78; 6HR MAX TEMP:  93;

WORLAND        FAIR      88  35  15 NE6       30.08F
6HR MIN TEMP:  77; 6HR MAX TEMP:  90;

SHERIDAN       FAIR      88  34  14 CALM      30.12F
6HR MIN TEMP:  81; 6HR MAX TEMP:  89;

BUFFALO        FAIR      84  32  15 N6        30.19F
6HR MIN TEMP:  80; 6HR MAX TEMP:  87;

GILLETTE       FAIR      85  31  14 N12       30.14S
6HR MIN TEMP:  80; 6HR MAX TEMP:  88;

HULETT         FAIR      81  43  26 E10       30.16F
NEWCASTLE      FAIR      82  43  24 S6        30.14F

$$
WYZ014>020-022>026-101>103-230100-
CENTRAL WYOMING

CITY           SKY/WX    TMP DP  RH WIND       PRES   REMARKS
BIG PINEY      FAIR      82  24  12 NW12      30.30F
6HR MIN TEMP:  73; 6HR MAX TEMP:  85;

PINEDALE       FAIR      79  23  12 NW12      30.32F
DUBOIS         FAIR      79  19  11 W13       30.29S
LANDER           N/A    N/A N/A N/A MISG      30.18F
RIVERTON       FAIR      85  28  12 VRB3      30.17F
6HR MIN TEMP:  73; 6HR MAX TEMP:  85;

CASPER         FAIR      85  32  15 VRB5      30.17F
6HR MIN TEMP:  77; 6HR MAX TEMP:  87;

DOUGLAS        FAIR      84  41  21 NW3       30.17F
6HR MIN TEMP:  75; 6HR MAX TEMP:  85;


$$
WYZ021-027>030-104>119-230100-
SOUTHERN WYOMING

CITY           SKY/WX    TMP DP  RH WIND       PRES   REMARKS
EVANSTON       FAIR      71  41  33 W14       30.36R
6HR MIN TEMP:  71; 6HR MAX TEMP:  83;

KEMMERER         N/A     77  28  16 NW7       30.34S
FORT BRIDGER   FAIR      79  32  18 SW15      30.36R
ROCK SPRINGS   FAIR      83  24  11 W7        30.28F
6HR MIN TEMP:  77; 6HR MAX TEMP:  86;

DIXON          FAIR      81  33  17 S14G23    30.29S
RAWLINS        NOT AVBL
SARATOGA       FAIR      79  30  17 W9        30.30F
LARAMIE        PTSUNNY   79  21  11 N10       30.30S
6HR MIN TEMP:  77; 6HR MAX TEMP:  84;

CHEYENNE       FAIR      76  52  43 S14G24    30.26F
6HR MIN TEMP:  67; 6HR MAX TEMP:  77;

TORRINGTON     FAIR      83  51  33 SE18      30.12F
6HR MIN TEMP:  79; 6HR MAX TEMP:  87;

PINE BLUFFS    FAIR      79  50  36 S14G20    30.21F

$$




USA.gov is the U.S. government's official web portal to all federal, state and local government web resources and services.